Location: Unspecified
(0.0000°N, 0.0000°E)
Time: 00:23:44
(UTC+00:00)

Envisat - Pass Details

Date: 30 June 2022
Orbit: 764 x 765 km, 98.2° (Epoch: 28 June)

Event Time Altitude Azimuth Distance (km) Brightness Sun altitude
Rises 03:16:12 0° 39° (NE) 3,215 7.0 -37.8°
Reaches altitude 10° 03:19:01 10° 55° (NE) 2,292 6.2 -37.2°
Maximum altitude 03:22:44 21° 103° (ESE) 1,677 5.1 -36.4°
Enters shadow 03:22:51 21° 104° (ESE) 1,678 5.1 -36.4°
